Tracking 32460 objects as of 11-Dec-2025
HD Live streaming from Space Station
objects crossing your sky now

STARLINK-1234

Track STARLINK-1234 now!
10-day predictions
STARLINK-1234 is classified as:


NORAD ID: 45190
Int'l Code: 2020-012N
Perigee: 440.7 km
Apogee: 449.5 km
Inclination: 53.1 °
Period: 93.3 minutes
Semi major axis: 6816 km
RCS: Unknown
Launch date: February 17, 2020
Source: United States (US)
Launch site: AIR FORCE EASTERN TEST RANGE (AFETR)
Your satellite tracking list
Your tracking list is empty




NASA's NSSDC Master Catalog

Two Line Element Set (TLE):
1 45190U 20012N   25345.12444031  .00096758  00000-0  21594-2 0  9990
2 45190  53.0514  31.7866 0006503 352.1338   7.9563 15.42764497322128
Source of the keplerian elements: AFSPC